Middlesboro, KY

6:08 AM CDT on September 19, 2019 (GMT -0500)
Middlesboro

Weather History for K1A6 - August, 2019

Change the Weather History Date:

Monday, August 19, 2019

  Actual Average (WUND) Record (WUND)
Temperature  
Mean Temperature 78 °F -  
Max Temperature 92 °F - - (-1)
Min Temperature 65 °F - - (-1)
Cooling Degree Days 14    
Growing Degree Days 28 (Base 50)    
Moisture  
Dew Point 69 °F    
Average Humidity 81    
Maximum Humidity 100    
Minimum Humidity 49    
Precipitation  
Precipitation 0.00 in - - ()
Sea Level Pressure  
Sea Level Pressure 30.09 in    
Wind  
Wind Speed 0 mph (SW)    
Max Wind Speed 6 mph    
Max Gust Speed -    
Visibility 10 miles    
Events      
Averages and records for this station are not official NWS values.
T = Trace of Precipitation, MM = Missing Value Source: NWS Daily Summary

Daily Weather History Graph

Daily Weather History Graph

Search for Another Location

Airport or City:

Astronomy

Aug. 19, 2019 Rise Set
Actual Time 5:55 AM CDT 7:21 PM CDT
Civil Twilight 5:28 AM CDT 7:48 PM CDT
Nautical Twilight 4:55 AM CDT 8:20 PM CDT
Astronomical Twilight 4:21 AM CDT 8:54 PM CDT
Moon 9:48 PM CDT 9:30 AM CDT
Length of Visible Light 14h 19m
Length of Day
13h 25m
Waning Gibbous, 85% of the Moon is Illuminated
Aug 19
Waning Gibbous
Aug 23
Last Quarter
Aug 30
New
Sep 5
First Quarter
Sep 13
Full

Hourly Weather History & Observations

Time (CDT) Temp. Heat Index Dew Point Humidity Pressure Visibility Wind Dir Wind Speed Gust Speed Precip Events Conditions
12:15 AM 68.9 °F - 68.4 °F 98% 30.07 in 10.0 mi Calm Calm - N/A   Clear
12:35 AM 68.4 °F - 68.4 °F 100% 30.06 in 10.0 mi Calm Calm - N/A   Clear
12:55 AM 67.8 °F - 67.8 °F 100% 30.06 in 10.0 mi Calm Calm - N/A   Clear
1:15 AM 67.5 °F - 67.5 °F 100% 30.06 in 10.0 mi Calm Calm - N/A   Clear
1:35 AM 67.3 °F - 67.3 °F 100% 30.07 in 10.0 mi Calm Calm - N/A   Clear
1:55 AM 67.1 °F - 67.1 °F 100% 30.07 in 10.0 mi Calm Calm - N/A   Clear
2:15 AM 66.6 °F - 66.6 °F 100% 30.07 in 10.0 mi Calm Calm - N/A   Clear
2:35 AM 66.6 °F - 66.6 °F 100% 30.07 in 10.0 mi Calm Calm - N/A   Clear
2:55 AM 66.7 °F - 66.7 °F 100% 30.07 in 10.0 mi Calm Calm - N/A   Clear
3:15 AM 66.6 °F - 66.6 °F 100% 30.07 in 10.0 mi Calm Calm - N/A   Clear
3:35 AM 66.7 °F - 66.7 °F 100% 30.08 in 10.0 mi Calm Calm - N/A   Scattered Clouds
3:55 AM 66.2 °F - 66.2 °F 100% 30.08 in 10.0 mi Calm Calm - N/A   Scattered Clouds
4:15 AM 66.2 °F - 66.2 °F 100% 30.08 in 10.0 mi Calm Calm - N/A   Scattered Clouds
4:35 AM 66.4 °F - 66.4 °F 100% 30.09 in 10.0 mi Calm Calm - N/A   Clear
4:55 AM 65.7 °F - 65.7 °F 100% 30.09 in 10.0 mi Calm Calm - N/A   Clear
5:15 AM 66.2 °F - 66.2 °F 100% 30.09 in 10.0 mi Calm Calm - N/A   Mostly Cloudy
5:35 AM 66.2 °F - 66.2 °F 100% 30.10 in 10.0 mi Calm Calm - N/A   Scattered Clouds
5:55 AM 66.2 °F - 66.2 °F 100% 30.10 in 10.0 mi Calm Calm - N/A   Clear
6:15 AM 65.8 °F - 65.8 °F 100% 30.10 in 10.0 mi Calm Calm - N/A   Clear
6:35 AM 66.6 °F - 66.6 °F 100% 30.11 in 10.0 mi Calm Calm - N/A   Clear
6:55 AM 67.1 °F - 67.1 °F 100% 30.12 in 10.0 mi Calm Calm - N/A   Clear
7:15 AM 68.0 °F - 68.0 °F 100% 30.12 in 10.0 mi Calm Calm - N/A   Clear
7:35 AM 68.7 °F - 68.5 °F 99% 30.12 in 10.0 mi Calm Calm - N/A   Clear
7:55 AM 69.3 °F - 69.1 °F 99% 30.12 in 10.0 mi Calm Calm - N/A   Clear
8:15 AM 70.9 °F - 69.1 °F 94% 30.13 in 10.0 mi Calm Calm - N/A   Clear
8:35 AM 72.1 °F - 69.3 °F 91% 30.13 in 10.0 mi Calm Calm - N/A   Clear
8:55 AM 73.4 °F - 69.4 °F 87% 30.13 in 10.0 mi Calm Calm - N/A   Clear
9:15 AM 75.0 °F - 69.6 °F 83% 30.13 in 10.0 mi Calm Calm - N/A   Clear
9:35 AM 75.6 °F - 69.8 °F 82% 30.14 in 10.0 mi Calm Calm - N/A   Clear
9:55 AM 77.0 °F - 70.2 °F 79% 30.14 in 10.0 mi Calm Calm - N/A   Clear
10:15 AM 79.3 °F - 70.3 °F 74% 30.13 in 10.0 mi Calm Calm - N/A   Clear
10:35 AM 80.6 °F 84.2 °F 70.9 °F 72% 30.13 in 10.0 mi Calm Calm - N/A   Clear
10:55 AM 82.8 °F 87.7 °F 71.8 °F 69% 30.13 in 10.0 mi Calm Calm - N/A   Clear
11:15 AM 84.2 °F 88.7 °F 70.3 °F 63% 30.13 in 10.0 mi Calm Calm - N/A   Clear
11:35 AM 85.5 °F 90.8 °F 71.1 °F 62% 30.12 in 10.0 mi Calm Calm - N/A   Clear
11:55 AM 86.7 °F 91.4 °F 70.0 °F 57% 30.12 in 10.0 mi ENE 3.5 mph - N/A   Clear
12:15 PM 87.6 °F 91.9 °F 68.9 °F 54% 30.12 in 10.0 mi Calm Calm - N/A   Clear
12:35 PM 88.0 °F 92.9 °F 70.2 °F 55% 30.11 in 10.0 mi Calm Calm - N/A   Clear
12:55 PM 89.2 °F 96.4 °F 72.0 °F 57% 30.11 in 10.0 mi Calm Calm - N/A   Clear
1:15 PM 90.0 °F 96.9 °F 71.6 °F 55% 30.10 in 10.0 mi Calm Calm - N/A   Mostly Cloudy
1:55 PM 91.2 °F 97.0 °F 70.3 °F 50% 30.09 in 10.0 mi ESE 3.5 mph - N/A   Scattered Clouds
2:15 PM 91.0 °F 97.1 °F 70.5 °F 51% 30.08 in 10.0 mi SW 5.8 mph - N/A   Scattered Clouds
2:35 PM 91.6 °F 97.7 °F 70.3 °F 50% 30.07 in 10.0 mi Calm Calm - N/A   Clear
2:55 PM 92.3 °F 99.2 °F 71.1 °F 50% 30.07 in 10.0 mi SSW 3.5 mph - N/A   Scattered Clouds
3:15 PM 91.6 °F 97.2 °F 70.2 °F 49% 30.07 in 10.0 mi Calm Calm - N/A   Overcast
3:35 PM 88.9 °F 93.8 °F 69.6 °F 53% 30.06 in 10.0 mi Calm Calm - N/A   Mostly Cloudy
3:55 PM 91.6 °F 98.2 °F 71.1 °F 51% 30.06 in 10.0 mi East 3.5 mph - N/A   Scattered Clouds
4:15 PM 90.3 °F 95.7 °F 69.8 °F 51% 30.05 in 10.0 mi Calm Calm - N/A   Scattered Clouds
4:35 PM 90.5 °F 95.5 °F 69.8 °F 50% 30.06 in 10.0 mi Calm Calm - N/A   Scattered Clouds
4:55 PM 92.1 °F 98.3 °F 70.2 °F 49% 30.05 in 10.0 mi Calm Calm - N/A   Clear
5:15 PM 91.0 °F 96.1 °F 69.3 °F 49% 30.05 in 10.0 mi SSW 3.5 mph - N/A   Clear
5:35 PM 90.1 °F 96.3 °F 70.7 °F 53% 30.05 in 10.0 mi Calm Calm - N/A   Clear
5:55 PM 88.2 °F 96.9 °F 74.1 °F 63% 30.05 in 10.0 mi Calm Calm - N/A   Clear
6:15 PM 84.7 °F 91.0 °F 72.9 °F 67% 30.05 in 10.0 mi Calm Calm - N/A   Clear
6:35 PM 83.3 °F 89.0 °F 72.7 °F 70% 30.06 in 10.0 mi WNW 4.6 mph - N/A   Clear
6:55 PM 82.2 °F 87.1 °F 72.1 °F 71% 30.06 in 10.0 mi Calm Calm - N/A   Clear
7:15 PM 80.4 °F 84.1 °F 70.9 °F 73% 30.06 in 10.0 mi WSW 3.5 mph - N/A   Clear
7:35 PM 79.2 °F - 71.1 °F 76% 30.06 in 10.0 mi Calm Calm - N/A   Clear
7:55 PM 77.9 °F - 70.9 °F 79% 30.07 in 10.0 mi Calm Calm - N/A   Clear
8:15 PM 77.4 °F - 70.9 °F 80% 30.08 in 10.0 mi Calm Calm - N/A   Clear
8:35 PM 76.8 °F - 71.6 °F 84% 30.09 in 10.0 mi Calm Calm - N/A   Clear
8:55 PM 75.6 °F - 70.7 °F 85% 30.10 in 10.0 mi Calm Calm - N/A   Clear
9:15 PM 75.2 °F - 70.0 °F 84% 30.11 in 10.0 mi WNW 3.5 mph - N/A   Clear
9:35 PM 74.1 °F - 70.2 °F 87% 30.12 in 10.0 mi Calm Calm - N/A   Clear
9:55 PM 73.6 °F - 71.6 °F 93% 30.13 in 10.0 mi Calm Calm - N/A   Clear
10:15 PM 72.9 °F - 71.2 °F 95% 30.13 in 10.0 mi Calm Calm - N/A   Clear
10:35 PM 73.0 °F - 70.9 °F 93% 30.13 in 10.0 mi Calm Calm - N/A   Clear
10:55 PM 72.0 °F - 71.2 °F 98% 30.13 in 10.0 mi Calm Calm - N/A   Clear
11:15 PM 71.8 °F - 71.8 °F 100% 30.13 in 10.0 mi Calm Calm - N/A   Clear
11:35 PM 70.9 °F - 70.9 °F 100% 30.13 in 10.0 mi Calm Calm - N/A   Clear
11:55 PM 71.1 °F - 71.1 °F 100% 30.13 in 10.0 mi Calm Calm - N/A   Clear